Probability
0 0 0 0 0 0 0 0 0 0 0 0 0 0 0 3 0 0 0 0 0 0 0 0 0 0 3 3 0 0 0 0 0 0 0 0 0 0 0 0 0 0 0 0
0 0 0 0 0 0 0 0 0 0 0 0 0 0 0 3 3 0 0 0 0 0 0 0 0 0 0 3 0 0 0 0 0 0 0 0 0 0 0 0 0 0 0 0
0 0 0 0 0 0 0 0 0 0 0 0 0 0 0 0 0 0 0 0 0 0 0 0 0 0 0 0 3 3 3 0 0 0 0 0 0 0 0 0 0 0 0 0
0 0 0 0 0 0 0 0 0 0 0 0 0 0 0 0 0 0 0 0 0 0 0 0 0 0 0 0 3 3 3 3 0 0 0 0 0 0 0 0 0 0 0 0
0 0 0 0 0 0 0 0 0 0 0 0 0 0 0 0 0 0 0 0 0 0 0 0 0 0 0 0 3 3 3 3 0 0 0 0 0 0 0 0 0 0 0 0
0 0 0 0 0 0 0 0 0 0 0 0 0 0 0 0 0 0 0 0 0 0 0 0 0 0 0 0 3 3 3 3 0 0 0 0 0 0 0 0 0 0 0 0
0 0 0 0 0 0 0 0 0 0 0 0 0 0 0 0 0 0 0 0 0 0 0 0 0 0 0 0 3 3 3 3 3 0 0 0 0 0 0 0 0 0 0 0
0 0 0 0 0 0 0 0 0 0 0 0 0 0 0 0 0 0 0 0 0 0 0 0 0 0 0 0 3 3 3 3 3 0 0 0 0 0 0 0 0 0 0 0
0 0 0 0 0 0 0 0 0 0 0 0 0 0 0 0 0 0 0 0 0 0 0 0 0 0 0 0 3 3 3 3 3 3 0 0 0 0 0 0 0 0 0 0
0 0 0 0 0 0 0 0 0 0 0 0 0 0 0 0 0 0 0 0 0 0 0 0 0 0 0 3 3 3 3 3 3 3 0 0 0 0 0 0 0 0 0 0
0 0 0 0 0 0 0 0 0 0 0 0 0 0 0 0 0 0 0 0 0 0 0 0 0 0 0 0 3 3 3 3 3 3 0 0 0 0 0 0 0 0 0 0
0 0 0 0 0 0 0 0 0 0 0 0 0 0 0 0 0 0 0 0 0 0 0 0 0 0 0 0 3 3 3 3 3 3 3 0 0 0 0 0 0 0 0 0
0 0 0 0 0 0 0 0 0 0 0 0 0 0 0 0 0 0 0 0 0 0 0 0 0 0 0 0 0 3 3 3 3 3 3 0 0 0 0 0 0 0 0 0
0 0 0 0 0 0 0 0 0 0 0 0 0 0 0 0 0 0 0 0 0 0 0 0 0 0 0 0 0 3 3 3 3 3 3 0 0 0 0 0 0 0 0 0
0 0 0 0 0 0 0 0 0 0 0 0 0 0 0 0 0 0 0 0 0 0 0 0 0 0 0 0 0 3 3 3 3 3 3 3 3 0 0 0 0 0 0 0
0 0 0 0 0 0 0 0 0 0 0 0 0 0 0 0 0 0 0 0 0 0 0 0 0 0 0 0 0 3 3 3 3 3 3 3 3 3 0 0 0 0 0 0
0 0 0 0 0 0 0 0 0 0 0 0 0 0 0 0 0 0 0 0 0 0 0 0 0 0 0 0 0 3 3 3 3 3 3 3 3 0 0 0 0 0 0 0
0 0 0 0 0 0 0 0 0 0 0 0 0 0 0 0 0 0 0 0 0 0 0 0 0 0 0 0 0 0 3 3 3 3 3 3 3 3 0 0 0 0 0 0
0 0 0 0 0 0 0 0 0 0 0 0 0 0 0 0 0 0 0 0 0 0 0 0 0 0 0 0 0 0 3 3 3 3 3 3 3 3 3 0 0 0 0 0
0 0 0 0 0 0 0 0 0 0 0 0 0 0 0 0 0 0 0 0 0 0 0 0 0 0 0 0 0 3 3 3 3 3 3 3 3 3 3 3 0 0 0 0
0 0 0 0 0 0 0 0 0 0 0 0 0 0 0 0 0 0 0 0 0 0 0 0 0 0 0 0 0 0 3 3 3 3 0 3 3 3 3 3 0 0 0 0
0 0 0 0 0 0 0 0 0 0 0 0 0 0 0 0 0 0 0 0 0 0 0 0 0 0 0 0 0 0 3 3 3 3 0 0 3 3 3 0 0 0 0 0
0 0 0 0 0 0 0 0 0 0 0 0 0 0 0 0 0 0 0 0 0 0 0 0 0 0 0 0 0 0 0 0 3 3 3 3 3 0 3 0 0 0 0 0
0 0 0 0 0 0 0 0 0 0 0 0 0 0 0 0 0 0 0 0 0 0 0 0 0 0 0 0 0 0 0 0 0 0 0 0 0 0 0 0 0 0 0 0
0 0 0 0 0 0 0 0 0 0 0 0 0 0 0 0 0 0 0 0 0 0 0 0 0 0 0 0 0 0 0 0 0 0 0 0 0 0 0 0 0 0 0 0
0 0 0 0 0 0 0 0 0 0 0 0 0 0 0 0 0 0 0 0 0 0 0 0 0 0 0 0 0 0 0 0 0 0 0 0 0 0 0 0 0 0 0 0
Height
5837 5841 5843 5845 5848 5851 5854 5857 5860 5863 5866 5868 5871 5873 5876 5877 5879 5881 5883 5885 5887 5889 5891 5892 5893 5894 5895 5896 5897 5897 5898 5898 5898 5898 5898 5897 5897 5896 5895 5894 5892 5891 5889 5887
5840 5841 5844 5846 5848 5851 5854 5857 5859 5862 5865 5867 5869 5872 5874 5877 5879 5881 5883 5885 5887 5888 5889 5891 5892 5894 5894 5895 5896 5897 5897 5897 5897 5897 5897 5897 5896 5896 5895 5893 5892 5890 5889 5887
5841 5844 5845 5847 5849 5852 5854 5857 5859 5862 5864 5867 5869 5872 5874 5876 5878 5880 5882 5883 5885 5886 5888 5889 5891 5892 5893 5894 5895 5895 5896 5896 5897 5897 5896 5896 5895 5895 5894 5893 5892 5890 5888 5886
5842 5844 5845 5848 5850 5852 5854 5857 5859 5861 5864 5866 5869 5871 5873 5875 5877 5879 5881 5882 5884 5885 5887 5888 5890 5891 5892 5893 5894 5894 5895 5895 5896 5896 5896 5895 5895 5894 5893 5892 5891 5889 5888 5886
5843 5845 5847 5848 5851 5853 5855 5857 5859 5861 5864 5866 5868 5871 5873 5874 5876 5878 5880 5881 5883 5884 5885 5886 5888 5889 5890 5891 5892 5893 5894 5894 5894 5894 5894 5894 5893 5893 5892 5891 5890 5888 5887 5885
5844 5846 5847 5849 5851 5853 5855 5858 5860 5861 5864 5867 5868 5870 5872 5873 5875 5877 5878 5880 5881 5882 5884 5885 5886 5888 5889 5890 5891 5892 5892 5893 5893 5893 5893 5893 5892 5891 5891 5890 5888 5887 5885 5884
5845 5846 5848 5850 5852 5854 5856 5859 5861 5862 5864 5866 5867 5869 5871 5872 5873 5875 5877 5878 5880 5881 5882 5883 5884 5886 5887 5888 5889 5890 5890 5891 5891 5891 5891 5891 5890 5889 5889 5888 5887 5885 5884 5882
5846 5848 5849 5851 5853 5854 5856 5859 5861 5863 5864 5865 5866 5868 5870 5871 5872 5873 5875 5876 5877 5879 5880 5882 5883 5884 5885 5886 5887 5888 5888 5889 5889 5889 5889 5889 5888 5887 5887 5886 5885 5883 5882 5880
5847 5848 5850 5851 5853 5855 5856 5858 5860 5862 5863 5864 5865 5867 5869 5869 5870 5871 5873 5874 5876 5877 5879 5880 5881 5882 5883 5884 5885 5885 5886 5886 5886 5886 5886 5886 5886 5885 5884 5883 5882 5881 5880 5878
5848 5849 5850 5851 5853 5855 5856 5857 5859 5861 5862 5862 5864 5865 5867 5868 5869 5870 5872 5873 5874 5876 5877 5877 5878 5879 5880 5881 5882 5883 5883 5883 5883 5883 5883 5883 5883 5882 5881 5881 5880 5878 5877 5875
5848 5850 5851 5852 5853 5854 5856 5857 5858 5859 5860 5862 5863 5867 5866 5866 5868 5869 5870 5871 5872 5874 5874 5875 5876 5877 5878 5879 5879 5880 5880 5880 5880 5880 5880 5880 5879 5879 5878 5878 5877 5875 5874 5872
5848 5849 5850 5851 5852 5853 5854 5855 5857 5859 5859 5860 5861 5866 5864 5865 5866 5867 5868 5869 5870 5871 5872 5873 5873 5874 5875 5876 5876 5876 5877 5877 5877 5877 5877 5876 5876 5875 5875 5874 5873 5872 5871 5869
5848 5849 5849 5850 5853 5853 5853 5854 5855 5857 5858 5859 5860 5864 5862 5863 5864 5865 5866 5867 5868 5868 5869 5870 5871 5871 5872 5872 5872 5873 5873 5873 5873 5873 5873 5872 5872 5872 5871 5870 5869 5868 5867 5865
5847 5848 5849 5850 5849 5850 5851 5852 5853 5855 5856 5857 5858 5860 5860 5861 5861 5862 5863 5864 5865 5865 5866 5867 5867 5868 5868 5869 5869 5869 5869 5869 5869 5869 5869 5868 5868 5867 5867 5866 5865 5864 5862 5861
5846 5847 5847 5848 5848 5849 5850 5851 5852 5853 5854 5855 5856 5856 5857 5857 5858 5859 5860 5861 5862 5862 5863 5863 5863 5864 5865 5865 5865 5865 5865 5865 5865 5865 5864 5864 5863 5863 5862 5861 5860 5859 5858 5856
5844 5845 5845 5846 5846 5847 5847 5848 5849 5850 5851 5852 5853 5854 5854 5854 5855 5856 5857 5857 5858 5859 5859 5859 5860 5860 5860 5861 5861 5861 5861 5861 5860 5860 5860 5859 5858 5858 5857 5856 5855 5854 5852 5851
5842 5843 5843 5844 5844 5844 5846 5846 5846 5847 5847 5848 5849 5851 5850 5851 5852 5853 5853 5854 5854 5854 5855 5855 5855 5856 5856 5856 5856 5856 5856 5856 5856 5855 5855 5854 5853 5852 5852 5851 5849 5848 5846 5845
5839 5839 5840 5841 5842 5842 5845 5843 5843 5844 5844 5845 5845 5846 5847 5847 5848 5848 5849 5849 5850 5850 5850 5850 5851 5851 5851 5851 5851 5851 5851 5851 5850 5850 5849 5848 5848 5847 5846 5845 5843 5842 5840 5839
5835 5836 5836 5837 5837 5838 5840 5840 5840 5840 5841 5841 5841 5842 5842 5843 5843 5844 5844 5845 5845 5845 5845 5846 5846 5846 5846 5846 5846 5846 5845 5845 5845 5844 5843 5843 5842 5841 5840 5839 5837 5836 5834 5832
5831 5831 5833 5833 5833 5834 5837 5836 5836 5837 5837 5837 5837 5837 5838 5838 5839 5839 5839 5839 5840 5840 5840 5840 5841 5841 5841 5840 5840 5840 5840 5839 5839 5838 5837 5836 5835 5835 5833 5832 5830 5829 5827 5825
5826 5827 5827 5828 5828 5829 5831 5831 5832 5833 5834 5833 5832 5833 5833 5833 5833 5833 5833 5834 5834 5834 5834 5834 5835 5835 5835 5834 5834 5834 5834 5833 5832 5832 5831 5830 5829 5827 5826 5825 5823 5821 5819 5817
5821 5822 5822 5823 5823 5826 5825 5825 5827 5827 5827 5827 5827 5827 5827 5827 5827 5827 5827 5827 5828 5828 5828 5828 5828 5828 5828 5828 5828 5828 5827 5826 5826 5825 5824 5823 5821 5820 5818 5817 5815 5813 5811 5809
5815 5817 5817 5818 5820 5820 5819 5819 5820 5820 5820 5820 5820 5821 5821 5821 5821 5821 5821 5821 5821 5821 5821 5821 5822 5822 5821 5821 5821 5821 5820 5819 5818 5817 5816 5815 5814 5812 5810 5809 5807 5804 5802 5800
5809 5809 5810 5811 5812 5812 5813 5813 5813 5813 5813 5813 5813 5814 5814 5814 5814 5814 5814 5814 5814 5814 5814 5814 5814 5814 5814 5814 5813 5813 5812 5811 5810 5809 5808 5807 5805 5804 5802 5800 5798 5795 5793 5790
5802 5803 5803 5804 5805 5805 5805 5806 5806 5806 5806 5806 5806 5806 5806 5806 5806 5806 5806 5806 5806 5806 5806 5806 5806 5806 5806 5805 5805 5804 5803 5803 5802 5801 5799 5798 5796 5795 5793 5790 5788 5785 5783 5780
5795 5796 5796 5797 5798 5798 5798 5798 5798 5799 5798 5798 5799 5799 5798 5798 5798 5798 5798 5798 5798 5798 5798 5798 5798 5797 5797 5796 5796 5795 5794 5793 5792 5791 5790 5788 5786 5785 5782 5780 5778 5775 5772 5769
Wind_Speed
12 12 13 14 15 14 15 16 15 14 14 14 12 12 11 11 11 11 10 10 10 10 10 8 7 7 6 5 4 3 3 2 1 0 0 1 2 3 4 5 7 8 8 9
12 12 11 11 13 14 14 14 14 14 14 14 13 12 12 12 12 11 10 10 10 9 9 9 7 7 6 6 5 4 4 3 2 1 1 1 2 3 4 5 7 7 8 9
12 11 11 11 12 13 13 14 12 13 13 13 11 11 12 12 12 11 10 10 9 9 8 8 8 7 7 6 6 5 4 3 2 2 1 2 2 3 4 5 7 7 8 9
10 10 10 11 12 12 12 12 13 13 13 12 11 10 11 11 12 12 11 10 9 9 9 9 9 8 8 7 6 6 5 4 3 2 2 2 3 4 5 6 7 7 8 9
9 9 10 11 12 11 11 12 13 12 12 11 11 10 10 11 11 12 12 11 10 10 9 9 8 9 8 8 7 7 6 5 4 3 3 3 3 4 5 6 7 8 8 9
10 9 9 10 10 9 11 12 12 12 12 11 11 10 10 10 11 11 11 11 10 9 9 8 9 9 9 8 8 7 6 6 5 4 4 4 4 5 6 6 7 8 9 10
10 9 9 9 10 10 11 11 12 11 11 10 10 10 9 10 10 11 11 11 10 10 9 9 9 9 9 8 8 8 8 7 6 6 5 5 6 6 7 7 8 9 9 10
10 10 10 10 10 9 9 11 11 10 10 10 10 9 9 9 9 10 10 10 9 9 9 10 10 10 10 9 9 9 9 8 7 7 7 7 7 7 8 8 9 9 10 11
9 10 11 10 10 10 10 11 11 10 10 10 9 9 8 8 9 10 10 9 9 9 10 10 9 10 10 10 9 9 9 9 8 8 8 8 8 8 9 9 10 10 11 12
7 8 9 9 10 10 9 10 11 10 9 9 10 9 8 8 8 9 9 9 9 9 10 9 8 9 10 10 10 10 10 10 10 10 10 10 10 10 10 10 11 12 12 12
6 6 7 7 8 9 9 9 10 9 9 8 8 8 7 8 7 8 8 9 9 9 10 10 10 10 10 11 11 11 11 11 11 11 12 12 12 11 11 12 12 13 13 13
5 5 6 7 8 10 10 10 10 10 10 9 8 7 7 8 8 8 8 9 9 9 10 10 11 11 11 11 12 12 12 12 12 12 13 13 13 13 13 13 14 14 14 14
5 5 5 6 8 9 9 10 10 10 10 10 9 8 8 8 9 8 9 9 9 10 11 11 12 12 12 12 13 13 13 13 13 13 14 14 15 15 15 15 15 15 15 16
5 5 5 6 8 8 9 9 10 10 10 11 10 11 11 10 10 10 9 9 9 10 11 12 13 13 13 14 14 14 13 13 14 14 15 16 16 16 16 16 17 17 17 17
7 6 6 6 7 8 9 9 10 10 11 11 11 11 11 12 12 12 11 11 11 11 12 12 13 14 14 15 15 15 15 15 15 15 16 16 17 17 18 18 18 18 19 19
8 8 8 7 8 9 9 9 10 11 12 12 12 11 12 13 13 13 13 13 12 12 12 13 14 14 15 15 15 15 16 16 16 16 17 17 18 18 18 19 19 19 20 20
10 10 10 10 10 10 10 10 11 12 12 13 12 12 13 14 14 14 14 14 13 13 13 13 14 15 15 16 16 16 17 17 17 18 18 19 19 19 19 19 20 21 21 22
12 13 13 13 13 13 11 12 13 13 13 13 14 13 14 14 15 15 16 15 14 14 14 15 16 16 17 17 18 18 18 19 19 19 20 20 20 20 20 20 21 22 22 23
14 14 14 15 15 14 13 14 15 15 15 15 15 15 15 15 16 17 17 17 16 16 16 17 17 17 18 18 19 19 19 20 21 21 21 21 21 21 21 22 23 23 24 25
15 15 16 16 16 15 14 15 15 16 16 16 16 16 16 17 17 17 18 18 18 18 18 18 19 19 19 19 19 20 21 21 22 22 22 22 23 23 23 24 25 25 26 27
17 17 18 18 18 17 16 16 16 16 16 17 17 17 17 18 19 19 19 19 19 19 19 19 19 19 20 20 20 21 21 22 23 23 24 24 24 25 25 26 27 27 28 29
20 20 19 20 20 18 18 18 18 17 18 19 19 19 19 20 20 20 21 21 21 21 21 21 21 21 21 21 21 22 23 23 24 24 24 24 25 26 27 28 29 29 30 30
22 22 22 22 21 19 19 20 19 20 20 21 21 21 21 21 21 22 22 22 23 23 23 23 23 23 23 23 23 24 24 25 26 26 26 26 27 28 29 29 30 31 32 32
24 24 24 23 22 21 21 21 21 21 21 22 23 23 23 23 23 23 23 24 24 24 24 24 25 25 25 25 26 26 27 27 28 28 28 28 29 30 31 32 32 33 34 35
25 25 25 25 24 24 23 23 23 23 23 24 24 24 24 24 25 25 25 25 25 25 26 26 26 27 27 28 28 28 29 30 30 30 30 31 31 32 33 34 34 35 36 37
24 25 26 26 25 26 26 25 25 25 25 26 25 25 25 25 25 26 26 26 27 27 27 27 27 27 28 29 29 30 30 31 31 32 32 33 33 34 35 35 36 37 38 39
Wind_Direction
166 175 173 172 176 178 182 183 187 190 191 191 193 195 192 191 192 189 189 191 194 194 190 189 194 194 194 197 204 206 202 207 197 207 53 39 28 22 19 12 6 4 5 4
163 168 165 168 172 176 177 183 188 189 188 191 190 190 193 191 191 187 188 192 195 196 196 197 200 199 203 207 210 206 205 208 204 225 273 344 0 3 4 359 356 358 1 1
161 160 159 164 171 177 179 178 179 180 183 187 186 189 191 190 190 187 190 195 200 201 203 199 202 207 211 214 213 206 206 208 214 232 269 318 334 344 347 348 352 356 358 357
152 151 153 160 167 171 174 171 171 171 172 178 186 188 187 190 189 188 189 193 196 197 203 201 204 211 214 214 210 209 211 209 212 235 268 302 328 332 336 341 344 349 351 351
150 154 157 160 162 165 168 164 163 166 170 177 182 186 185 188 188 187 188 190 194 196 197 200 205 208 211 212 211 214 218 219 224 244 265 289 311 315 322 328 333 338 342 345
149 149 156 165 167 163 164 165 165 167 170 173 179 184 182 187 190 192 193 194 196 197 198 205 207 208 211 212 214 219 225 227 234 251 268 285 297 300 308 317 324 329 332 336
150 149 154 161 159 162 169 171 170 172 174 178 182 182 179 184 194 195 196 198 200 203 205 210 211 213 216 218 221 226 232 238 246 256 267 280 288 294 302 308 315 320 325 329
154 156 157 161 163 168 176 179 181 183 183 184 189 185 181 187 192 195 196 201 204 208 214 214 211 216 220 223 229 232 238 243 250 257 266 276 284 293 299 303 308 313 318 323
154 152 154 156 164 171 178 183 186 190 191 194 192 186 178 179 185 195 199 201 204 210 213 211 213 221 227 229 233 236 241 246 252 258 264 272 279 287 294 300 303 307 312 317
161 163 163 164 167 174 179 184 184 189 195 199 198 192 182 181 184 191 196 201 208 214 214 218 223 227 234 238 240 244 249 253 257 261 267 272 276 282 288 294 299 303 307 311
167 176 180 185 184 184 189 194 197 203 204 199 198 195 192 197 200 198 198 203 209 214 217 223 229 235 240 244 247 250 254 257 262 265 269 272 275 278 280 286 293 299 302 306
179 181 191 197 197 198 198 201 206 217 218 219 211 204 211 210 212 211 212 214 217 222 226 232 235 242 246 248 251 253 256 259 263 267 269 270 272 273 277 283 288 294 299 302
200 200 208 209 208 205 208 210 215 223 230 228 228 227 232 227 227 226 228 229 229 230 233 236 239 244 250 251 253 255 258 262 265 268 268 269 270 273 277 281 286 291 296 300
212 215 220 222 215 215 215 217 219 225 231 238 242 246 247 249 245 242 243 243 243 240 241 243 246 250 254 254 255 258 260 265 268 269 270 270 271 274 277 280 285 288 293 296
224 228 230 224 221 225 220 223 228 234 237 241 244 248 248 249 249 249 251 251 252 250 253 254 253 254 256 257 259 260 262 264 266 268 270 271 272 275 277 281 284 287 291 293
234 237 238 234 236 231 227 227 235 240 243 246 245 247 251 253 253 252 255 259 258 256 254 254 255 255 257 258 260 260 261 263 264 268 271 273 273 274 276 280 284 286 288 291
241 243 241 241 246 242 236 234 236 239 242 248 250 250 249 254 257 259 258 260 262 260 258 256 257 258 259 260 260 260 261 262 265 268 271 273 274 274 276 280 284 286 288 290
243 245 246 247 250 249 247 247 248 247 248 252 255 253 252 256 259 261 261 262 263 261 261 260 261 263 263 262 261 261 262 264 266 269 271 274 275 276 277 280 283 286 288 290
246 248 250 251 252 250 249 251 253 254 254 257 260 259 259 259 260 261 261 261 262 262 262 263 263 263 263 263 263 263 264 266 268 270 272 274 276 277 278 280 283 286 288 290
247 249 252 254 256 256 255 253 255 257 258 259 261 262 262 263 263 263 262 262 262 263 263 263 262 263 264 265 265 266 267 268 270 272 272 273 274 277 279 280 283 285 287 290
250 252 255 258 260 261 260 258 258 259 261 260 261 262 263 264 264 265 264 264 265 266 264 263 262 263 265 265 266 268 268 269 271 272 273 274 275 277 278 280 283 285 286 288
252 254 256 260 264 266 265 265 265 265 263 263 263 263 263 265 266 266 266 265 266 266 266 265 264 265 266 266 267 268 268 270 271 273 274 276 277 278 279 282 284 286 287 289
254 256 258 262 266 268 266 267 267 266 265 265 265 264 264 265 266 266 266 266 265 266 266 265 266 266 267 268 269 269 270 271 273 274 276 277 279 280 280 282 285 287 289 290
254 257 259 262 265 266 267 267 267 267 267 266 267 267 267 268 268 267 266 266 266 266 266 267 267 268 269 270 271 272 273 274 275 276 277 278 280 281 282 283 285 287 289 290
254 256 259 262 265 266 268 268 269 269 269 269 269 269 269 269 269 269 268 267 267 267 268 268 269 269 270 271 273 274 274 275 276 277 278 279 280 281 283 284 286 287 288 290
253 257 260 262 263 266 268 268 269 270 271 271 271 272 271 271 270 270 269 268 267 268 268 268 269 270 271 272 273 274 275 276 277 277 278 279 280 282 283 285 286 287 289 290